Find Starlink 35249

NORAD ID: 65901 Int'l Des: 2025-224 Owner: SPXS Country: US Constellation: starlink operational
LEOCIRCULAR

当前视图

正在加载3D地球...

About Starlink 35249

Starlink 35249 (NORAD 65901) is a starlink constellation satellite (v2 mini) launched Oct 7, 2025 by SPXS of US. It operates in LEO, CIRCULAR orbit with a mass of 575.00 kg.

即将过境

Passes for default location (London). Set your location on the main map for personalized predictions.

高度历史

Loading altitude history...

两行轨道根数

1 65901U 25224V 26265.08600030 .00019257 00000-0 57952-3 0 9999
2 65901 53.1595 178.3797 0000775 86.5108 273.5983 15.34405112 54934
Epoch: Sep 22, 2026 • Age: 17 hours

当前状态

高度 479.1 km
远地点 / 近地点 N/A
速度 7.63 km/s
星下点 -47.03°S, 125.16°E
发射日期 Oct 7, 2025
运行时间 0.9 years
类型 internet

技术详情

分类 Payload
质量 575.00 kg
干质量 530.00 kg
长度 0.30 m
跨度 29.00 m
形状 ? Box + pan
制造商 SPXS
平台类型 Starlink V2MO
阶段状态 In Orbit
所有者/国家 SPXS/US

Most Searched